FW2982 Weather Reports


time (UTC)temp
C
wind
direction
speed
KPH
gust
KPH
rain 1hr
cm
rain 24hr
cm
rain mn
cm
humidity
%
barometer
mb
20260509233454 21 168 0.0 1.6 0.00 0.00 0.00 62 1006.0
20260509232955 21 168 0.0 3.2 0.00 0.00 0.00 61 1005.9
20260509232454 21 168 0.0 3.2 0.00 0.00 0.00 61 1005.9
20260509231955 21 169 0.0 1.6 0.00 0.00 0.00 60 1005.9
20260509231733 21 169 0.0 0.0 0.00 0.00 0.00 59 1005.9
20260509230953 21 169 0.0 0.0 0.00 0.00 0.00 59 1005.9
20260509230454 21 169 0.0 1.6 0.00 0.00 0.00 58 1005.8
20260509225954 22 169 0.0 1.6 0.00 0.00 0.00 58 1005.8
20260509225455 22 169 0.0 3.2 0.00 0.00 0.00 57 1005.9
20260509225305 22 162 1.6 4.8 0.00 0.00 0.00 55 1005.8
20260509225011 22 169 0.0 4.8 0.00 0.00 0.00 55 1005.8
20260509223953 22 333 0.0 1.6 0.00 0.00 0.00 54 1005.9
20260509223454 22 333 0.0 3.2 0.00 0.00 0.00 53 1005.9
20260509222954 23 333 0.0 3.2 0.00 0.00 0.00 53 1005.8
20260509222455 23 334 0.0 4.8 0.00 0.00 0.00 51 1005.7
20260509221953 23 333 0.0 4.8 0.00 0.00 0.00 52 1005.8
20260509221452 23 148 0.0 4.8 0.00 0.00 0.00 53 1005.9
20260509220940 23 148 0.0 4.8 0.00 0.00 0.00 53 1005.8
20260509220442 23 100 0.0 3.2 0.00 0.00 0.00 53 1005.9
20260509215940 23 100 0.0 3.2 0.00 0.00 0.00 53 1005.8
20260509215439 23 100 0.0 3.2 0.00 0.00 0.00 52 1005.8
20260509214938 23 100 0.0 3.2 0.00 0.00 0.00 53 1005.7
20260509214436 23 100 0.0 3.2 0.00 0.00 0.00 55 1005.8
20260509214217 23 100 1.6 3.2 0.00 0.00 0.00 55 1005.8
20260509213435 23 97 0.0 3.2 0.00 0.00 0.00 54 1005.8
20260509212936 23 96 0.0 4.8 0.00 0.00 0.00 54 1005.8
20260509212432 23 83 3.2 6.4 0.00 0.00 0.00 54 1005.7
20260509211931 23 90 1.6 6.4 0.00 0.00 0.00 55 1005.7
20260509211431 23 213 1.6 6.4 0.00 0.00 0.00 53 1005.7
20260509210932 23 148 1.6 4.8 0.00 0.00 0.00 53 1005.7
20260509210433 23 262 1.6 4.8 0.00 0.00 0.00 52 1005.7
20260509205932 23 314 0.0 4.8 0.00 0.00 0.00 54 1005.8
20260509205432 23 7 3.2 4.8 0.00 0.00 0.00 52 1005.7
20260509205214 24 307 1.6 4.8 0.00 0.00 0.00 54 1005.8
20260509204430 23 48 1.6 8.0 0.00 0.00 0.00 55 1005.7
20260509203930 23 75 1.6 8.0 0.00 0.00 0.00 54 1005.7
20260509203421 23 275 3.2 8.0 0.00 0.00 0.00 54 1005.8
20260509202920 23 288 3.2 8.0 0.00 0.00 0.00 55 1005.6
20260509202420 23 204 3.2 8.0 0.00 0.00 0.00 53 1005.6
20260509201919 23 224 1.6 6.4 0.00 0.00 0.00 55 1005.6
20260509201419 23 238 1.6 11.3 0.00 0.00 0.00 57 1005.7
20260509200906 23 92 4.8 11.3 0.00 0.00 0.00 55 1005.7
20260509200407 23 44 3.2 9.7 0.00 0.00 0.00 55 1005.8
20260509195930 23 221 1.6 9.7 0.00 0.00 0.00 55 1006.1
20260509195921 23 58 3.2 9.7 0.00 0.00 0.00 56 1005.8
20260509194905 23 227 3.2 11.3 0.00 0.00 0.00 54 1006.1
20260509194404 23 286 1.6 11.3 0.00 0.00 0.00 55 1006.2
20260509193905 23 216 0.0 16.1 0.00 0.00 0.00 54 1006.3
20260509193406 22 127 3.2 16.1 0.00 0.00 0.00 55 1006.2
20260509192903 22 251 1.6 9.7 0.00 0.00 0.00 56 1006.4
20260509192402 22 334 3.2 9.7 0.00 0.00 0.00 55 1006.5
20260509191902 22 96 3.2 6.4 0.00 0.00 0.00 56 1006.7
20260509191403 22 266 1.6 6.4 0.00 0.00 0.00 58 1006.7
20260509190903 22 247 3.2 6.4 0.00 0.00 0.00 58 1006.8
20260509190401 22 303 1.6 3.2 0.00 0.00 0.00 58 1006.8
20260509185857 22 240 1.6 4.8 0.00 0.00 0.00 59 1006.8
20260509185356 21 99 1.6 6.4 0.00 0.00 0.00 59 1006.7
20260509184857 22 188 3.2 6.4 0.00 0.00 0.00 59 1006.6
20260509184354 22 250 1.6 4.8 0.00 0.00 0.00 59 1006.7
20260509184137 21 285 0.0 6.4 0.00 0.00 0.00 61 1006.8
20260509183355 21 285 0.0 6.4 0.00 0.00 0.00 60 1006.7
20260509182852 21 168 1.6 4.8 0.00 0.00 0.00 59 1007.0
20260509182352 21 296 3.2 4.8 0.00 0.00 0.00 64 1007.0
20260509182132 21 264 0.0 1.6 0.00 0.00 0.00 64 1007.0
20260509181352 21 264 0.0 3.2 0.00 0.00 0.00 62 1007.1
20260509180850 21 264 0.0 3.2 0.00 0.00 0.00 61 1007.2
20260509180350 21 255 0.0 3.2 0.00 0.00 0.00 59 1007.4
20260509180130 21 254 0.0 3.2 0.00 0.00 0.00 61 1007.6
20260509175346 21 257 0.0 3.2 0.00 0.00 0.00 62 1007.7
20260509174847 21 254 0.0 3.2 0.00 0.00 0.00 60 1007.9
20260509174347 21 254 1.6 3.2 0.00 0.00 0.00 61 1007.9
20260509173846 21 345 0.0 3.2 0.00 0.00 0.00 59 1007.9
20260509173348 22 276 0.0 3.2 0.00 0.00 0.00 58 1007.8
20260509173126 21 275 0.0 4.8 0.00 0.00 0.00 61 1007.8
20260509172347 22 271 1.6 8.0 0.00 0.00 0.00 57 1007.8
20260509172154 23 241 1.6 6.4 0.00 0.00 0.00 58 1007.8
20260509172149 22 324 1.6 8.0 0.00 0.00 0.00 57 1007.8
20260509170847 23 158 1.6 8.0 0.00 0.00 0.00 57 1007.8
20260509170346 22 326 1.6 8.0 0.00 0.00 0.00 58 1007.8
20260509165846 21 257 1.6 9.7 0.00 0.00 0.00 58 1007.9
20260509165346 21 351 3.2 9.7 0.00 0.00 0.00 58 1008.0
20260509164846 21 75 4.8 8.0 0.00 0.00 0.00 59 1008.1
20260509164345 21 265 1.6 8.0 0.00 0.00 0.00 60 1008.1
20260509163846 20 130 1.6 4.8 0.00 0.00 0.00 61 1008.1
20260509163627 20 66 0.0 8.0 0.00 0.00 0.00 61 1008.2
20260509162846 20 226 3.2 8.0 0.00 0.00 0.00 60 1008.2
20260509162346 21 182 3.2 14.5 0.00 0.00 0.00 59 1008.2
20260509161846 21 233 1.6 14.5 0.00 0.00 0.00 60 1008.1
20260509161345 21 310 0.0 6.4 0.00 0.00 0.00 58 1008.1
20260509160845 21 0 1.6 6.4 0.00 0.00 0.00 57 1008.1
20260509160345 22 238 1.6 8.0 0.00 0.00 0.00 58 1008.1
20260509155843 22 268 3.2 8.0 0.00 0.00 0.00 58 1008.1
20260509155339 21 80 1.6 6.4 0.00 0.00 0.00 59 1008.1
20260509154837 21 217 1.6 6.4 0.00 0.00 0.00 56 1008.2
20260509154338 21 279 3.2 6.4 0.00 0.00 0.00 56 1008.4
20260509153837 21 354 1.6 6.4 0.00 0.00 0.00 56 1008.3
20260509153617 22 279 3.2 6.4 0.00 0.00 0.00 57 1008.3
20260509152833 22 200 3.2 8.0 0.00 0.00 0.00 58 1008.3
20260509152331 21 92 3.2 8.0 0.00 0.00 0.00 57 1008.4
20260509151830 23 258 3.2 6.4 0.00 0.00 0.00 54 1008.3
20260509151331 22 265 1.6 9.7 0.00 0.00 0.00 55 1008.4
20260509150833 22 213 3.2 9.7 0.00 0.00 0.00 57 1008.4
20260509150332 21 278 1.6 6.4 0.00 0.00 0.00 57 1008.5
20260509145830 21 307 1.6 6.4 0.00 0.00 0.00 55 1008.6
20260509145333 21 140 3.2 4.8 0.00 0.00 0.00 56 1008.5
20260509144332 19 144 3.2 9.7 0.00 0.00 0.00 60 1008.8
20260509143831 20 240 0.0 4.8 0.00 0.00 0.00 60 1008.8
20260509143611 19 255 1.6 4.8 0.00 0.00 0.00 61 1008.8
20260509142831 18 37 1.6 3.2 0.00 0.00 0.00 64 1008.9
20260509142333 18 169 1.6 11.3 0.00 0.00 0.00 64 1009.0
20260509141833 17 121 1.6 11.3 0.00 0.00 0.00 63 1009.0
20260509141331 17 100 1.6 4.8 0.00 0.00 0.00 64 1009.1
20260509140832 17 23 0.0 3.2 0.00 0.00 0.00 67 1009.1
20260509140333 16 23 1.6 3.2 0.00 0.00 0.00 65 1009.1
20260509135831 16 41 1.6 4.8 0.00 0.00 0.00 66 1009.0
20260509135333 15 186 1.6 4.8 0.00 0.00 0.00 66 1008.9
20260509135113 15 209 0.0 4.8 0.00 0.00 0.00 68 1009.0
20260509134612 15 210 0.0 4.8 0.00 0.00 0.00 67 1009.1
20260509133834 15 298 1.6 4.8 0.00 0.00 0.00 69 1009.2
20260509133332 15 289 0.0 6.4 0.00 0.00 0.00 68 1009.1
20260509132831 15 289 0.0 6.4 0.00 0.00 0.00 67 1009.1
20260509132332 15 292 1.6 6.4 0.00 0.00 0.00 68 1009.2
20260509131832 15 252 0.0 3.2 0.00 0.00 0.00 68 1009.1
20260509131333 15 306 0.0 3.2 0.00 0.00 0.00 69 1009.2
20260509130833 15 306 0.0 4.8 0.00 0.00 0.00 68 1009.2
20260509130611 15 306 1.6 4.8 0.00 0.00 0.00 66 1009.2
20260509125831 15 298 1.6 4.8 0.00 0.00 0.00 67 1009.1
20260509125333 15 45 0.0 6.4 0.00 0.00 0.00 69 1009.1
20260509124831 15 35 1.6 6.4 0.00 0.00 0.00 67 1009.0
20260509124330 15 69 0.0 4.8 0.00 0.00 0.00 67 1009.0
20260509123833 14 109 1.6 4.8 0.00 0.00 0.00 67 1009.1
20260509123331 15 128 0.0 3.2 0.00 0.00 0.00 67 1008.9
20260509122833 14 216 0.0 8.0 0.00 0.00 0.00 66 1009.0
20260509122333 14 303 1.6 8.0 0.00 0.00 0.00 67 1008.9
20260509122112 14 259 1.6 4.8 0.00 0.00 0.00 67 1009.0
20260509121332 14 234 0.0 3.2 0.00 0.00 0.00 68 1009.0
20260509120831 14 235 0.0 3.2 0.00 0.00 0.00 68 1009.0
20260509120332 14 230 1.6 4.8 0.00 0.00 0.00 67 1009.1
20260509115831 14 247 1.6 4.8 0.00 0.00 0.00 66 1008.9
20260509115354 14 140 0.0 6.4 0.00 0.00 0.00 67 1008.9
20260509115347 14 179 1.6 4.8 0.00 0.00 0.00 68 1008.8
20260509114331 14 140 0.0 6.4 0.00 0.00 0.00 66 1008.9
20260509113829 14 234 0.0 3.2 0.00 0.00 0.00 67 1009.0
20260509113329 14 235 1.6 6.4 0.00 0.00 0.00 66 1009.0
20260509112829 14 66 1.6 6.4 0.00 0.00 0.00 65 1008.9
20260509112331 13 148 0.0 6.4 0.00 0.00 0.00 66 1008.8
20260509111828 14 176 1.6 4.8 0.00 0.00 0.00 66 1008.7
20260509111327 14 121 0.0 4.8 0.00 0.00 0.00 66 1008.8
20260509110824 14 120 0.0 3.2 0.00 0.00 0.00 64 1008.8
20260509110325 14 24 0.0 1.6 0.00 0.00 0.00 63 1008.7
20260509105822 14 24 0.0 3.2 0.00 0.00 0.00 63 1008.7
20260509105348 14 264 0.0 3.2 0.00 0.00 0.00 61 1008.6
20260509105340 14 24 0.0 3.2 0.00 0.00 0.00 61 1008.6
20260509104323 13 10 0.0 6.4 0.00 0.00 0.00 62 1008.6
20260509103823 14 10 1.6 6.4 0.00 0.00 0.00 63 1008.6
20260509103324 14 220 0.0 3.2 0.00 0.00 0.00 60 1008.5
20260509102823 14 220 0.0 3.2 0.00 0.00 0.00 62 1008.6
20260509102322 13 220 1.6 4.8 0.00 0.00 0.00 61 1008.5
20260509101820 13 220 0.0 4.8 0.00 0.00 0.00 63 1008.5
20260509101320 13 220 0.0 3.2 0.00 0.00 0.00 64 1008.4
20260509100821 14 220 0.0 3.2 0.00 0.00 0.00 61 1008.4
20260509100319 14 219 0.0 4.8 0.00 0.00 0.00 62 1008.4
20260509095815 14 219 1.6 6.4 0.00 0.00 0.00 60 1008.3
20260509095314 14 216 3.2 6.4 0.00 0.00 0.00 60 1008.3
20260509095056 14 212 1.6 3.2 0.00 0.00 0.00 61 1008.2
20260509094316 14 212 1.6 6.4 0.00 0.00 0.00 61 1008.2
20260509093815 14 212 1.6 6.4 0.00 0.00 0.00 60 1008.2
20260509093313 14 226 1.6 4.8 0.00 0.00 0.00 60 1008.3
20260509092811 13 230 3.2 4.8 0.00 0.00 0.00 60 1008.4
20260509092308 13 245 0.0 3.2 0.00 0.00 0.00 60 1008.5
20260509092050 13 245 1.6 6.4 0.00 0.00 0.00 61 1008.6
20260509091307 13 247 3.2 6.4 0.00 0.00 0.00 60 1008.6
20260509090804 13 223 3.2 6.4 0.00 0.00 0.00 61 1008.6
20260509090305 13 224 1.6 4.8 0.00 0.00 0.00 61 1008.7
20260509085803 13 226 3.2 4.8 0.00 0.00 0.00 62 1008.7
20260509085306 13 49 1.6 4.8 0.00 0.00 0.00 61 1008.6
20260509084803 13 224 1.6 6.4 0.00 0.00 0.00 61 1008.8
20260509084302 13 223 0.0 6.4 0.00 0.00 0.00 63 1008.7
20260509083803 13 89 0.0 4.8 0.00 0.00 0.00 63 1008.8
20260509083302 13 87 0.0 4.8 0.00 0.00 0.00 63 1008.8
20260509082803 13 157 1.6 4.8 0.00 0.00 0.00 63 1008.9
20260509082306 13 353 1.6 6.4 0.00 0.00 0.00 63 1008.9
20260509081802 13 216 3.2 6.4 0.00 0.00 0.00 62 1008.8
20260509081303 13 275 1.6 6.4 0.00 0.00 0.00 64 1009.0
20260509080803 13 262 1.6 6.4 0.00 0.00 0.00 63 1009.0
20260509080302 13 314 1.6 6.4 0.00 0.00 0.00 63 1009.1
20260509075802 13 329 1.6 6.4 0.00 0.00 0.00 63 1009.1
20260509075544 13 247 1.6 3.2 0.00 0.00 0.00 63 1009.2
20260509074802 13 340 1.6 4.8 0.00 0.00 0.00 63 1009.2
20260509074303 13 209 1.6 6.4 0.00 0.00 0.00 61 1009.3
20260509073803 13 231 1.6 6.4 0.00 0.00 0.00 61 1009.3
20260509073256 13 207 1.6 9.7 0.00 0.00 0.00 61 1009.3
20260509072755 13 221 1.6 9.7 0.00 0.00 0.00 61 1009.3
20260509072535 13 0 1.6 4.8 0.00 0.00 0.00 62 1009.3
20260509071755 13 214 0.0 4.8 0.00 0.00 0.00 62 1009.2
20260509071256 13 221 0.0 4.8 0.00 0.00 0.00 63 1009.3
20260509070754 13 147 1.6 3.2 0.00 0.00 0.00 62 1009.2
20260509070252 13 61 1.6 3.2 0.00 0.00 0.00 61 1009.2
20260509065751 13 79 1.6 4.8 0.00 0.00 0.00 61 1009.2
20260509065251 13 355 1.6 4.8 0.00 0.00 0.00 61 1009.3
20260509064751 13 233 1.6 4.8 0.00 0.00 0.00 60 1009.3
20260509064249 13 189 1.6 3.2 0.00 0.00 0.00 60 1009.3
20260509063750 14 189 1.6 4.8 0.00 0.00 0.00 58 1009.3
20260509063251 14 213 1.6 4.8 0.00 0.00 0.00 58 1009.3
20260509062750 14 219 1.6 3.2 0.00 0.00 0.00 58 1009.4
20260509062519 14 309 1.6 6.4 0.00 0.00 0.00 59 1009.4
20260509061743 14 309 1.6 6.4 0.00 0.00 0.00 58 1009.5
20260509061240 14 250 1.6 6.4 0.00 0.00 0.00 57 1009.5
20260509060739 14 257 0.0 6.4 0.00 0.00 0.00 57 1009.6
20260509060235 14 258 3.2 6.4 0.00 0.00 0.00 57 1009.6
20260509060017 14 213 1.6 4.8 0.00 0.00 0.00 58 1009.5
20260509055516 14 212 0.0 4.8 0.00 0.00 0.00 59 1009.6
20260509054734 14 212 1.6 4.8 0.00 0.00 0.00 60 1009.6
20260509054512 13 274 1.6 3.2 0.00 0.00 0.00 59 1009.6
20260509053731 13 261 1.6 3.2 0.00 0.00 0.00 60 1009.6
20260509053514 13 262 1.6 3.2 0.00 0.00 0.00 61 1009.6
20260509052731 13 38 0.0 3.2 0.00 0.00 0.00 62 1009.6
20260509052231 13 25 0.0 4.8 0.00 0.00 0.00 61 1009.6
20260509051732 13 25 0.0 4.8 0.00 0.00 0.00 60 1009.7
20260509051231 13 230 1.6 4.8 0.00 0.00 0.00 60 1009.8
20260509051008 13 61 0.0 3.2 0.00 0.00 0.00 59 1009.8
20260509050229 13 61 0.0 3.2 0.00 0.00 0.00 58 1009.6
20260509045730 13 292 0.0 3.2 0.00 0.00 0.00 58 1009.6
20260509045231 13 213 0.0 3.2 0.00 0.00 0.00 59 1009.6
20260509044730 13 209 0.0 1.6 0.00 0.00 0.00 59 1009.5
20260509044229 13 209 0.0 3.2 0.00 0.00 0.00 58 1009.6
20260509043729 13 209 0.0 4.8 0.00 0.00 0.00 58 1009.6
20260509043229 13 207 1.6 4.8 0.00 0.00 0.00 60 1009.6
20260509042729 13 231 0.0 4.8 0.00 0.00 0.00 58 1009.8
20260509042508 13 293 1.6 6.4 0.00 0.00 0.00 58 1009.8
20260509041730 13 254 0.0 6.4 0.00 0.00 0.00 58 1009.8
20260509041229 13 288 0.0 6.4 0.00 0.00 0.00 58 1009.8
20260509040728 13 266 0.0 6.4 0.00 0.00 0.00 58 1009.8
20260509040510 13 343 0.0 4.8 0.00 0.00 0.00 58 1009.8
20260509035728 13 216 0.0 3.2 0.00 0.00 0.00 59 1009.8
20260509035509 13 279 0.0 3.2 0.00 0.00 0.00 60 1009.9
20260509034728 13 279 0.0 4.8 0.00 0.00 0.00 59 1009.8
20260509034512 13 252 0.0 4.8 0.00 0.00 0.00 60 1009.9
20260509033727 13 309 0.0 3.2 0.00 0.00 0.00 60 1009.8
20260509033227 13 313 0.0 3.2 0.00 0.00 0.00 61 1009.9
20260509032727 13 314 0.0 3.2 0.00 0.00 0.00 62 1009.9
20260509032224 13 0 0.0 3.2 0.00 0.00 0.00 62 1009.8
20260509031724 13 8 0.0 4.8 0.00 0.00 0.00 63 1009.9
20260509031225 13 17 1.6 4.8 0.00 0.00 0.00 63 1010.1
20260509030720 13 31 0.0 1.6 0.00 0.00 0.00 62 1010.1
20260509030504 13 31 0.0 1.6 0.00 0.00 0.00 61 1010.1
20260509025722 13 31 0.0 1.6 0.00 0.00 0.00 61 1010.1
20260509025221 13 31 0.0 1.6 0.00 0.00 0.00 62 1010.1
20260509024721 13 31 0.0 1.6 0.00 0.00 0.00 62 1010.1
20260509024219 13 31 0.0 1.6 0.00 0.00 0.00 60 1010.2
20260509023957 13 42 0.0 1.6 0.00 0.00 0.00 59 1010.2
20260509023217 13 42 0.0 1.6 0.00 0.00 0.00 59 1010.1
20260509022716 14 42 0.0 1.6 0.00 0.00 0.00 59 1010.1
20260509022215 14 42 0.0 1.6 0.00 0.00 0.00 59 1010.1
20260509021717 14 42 0.0 1.6 0.00 0.00 0.00 59 1010.1
20260509021216 14 42 0.0 1.6 0.00 0.00 0.00 58 1010.1
20260509020954 14 42 0.0 1.6 0.00 0.00 0.00 57 1010.0
20260509020451 14 42 0.0 1.6 0.00 0.00 0.00 57 1010.0
20260509015713 15 42 0.0 1.6 0.00 0.00 0.00 56 1010.0
20260509015211 15 42 0.0 1.6 0.00 0.00 0.00 57 1009.9
20260509014951 15 42 0.0 1.6 0.00 0.00 0.00 57 1009.9
20260509014211 15 42 0.0 1.6 0.00 0.00 0.00 57 1009.9
20260509013711 15 42 0.0 0.0 0.00 0.00 0.00 57 1009.9
20260509013450 15 42 0.0 1.6 0.00 0.00 0.00 56 1010.0
20260509012709 15 42 0.0 1.6 0.00 0.00 0.00 55 1010.0
20260509012210 15 42 0.0 1.6 0.00 0.00 0.00 55 1010.0
20260509011707 15 42 0.0 3.2 0.00 0.00 0.00 55 1010.0
20260509011207 15 42 0.0 3.2 0.00 0.00 0.00 57 1009.9
20260509010708 16 165 0.0 1.6 0.00 0.00 0.00 56 1009.9
20260509010207 16 165 0.0 1.6 0.00 0.00 0.00 54 1009.8
20260509005731 16 165 0.0 1.6 0.00 0.00 0.00 52 1009.7
20260509005721 16 165 0.0 0.0 0.00 0.00 0.00 54 1009.8
20260509004943 17 165 0.0 1.6 0.00 0.00 0.00 51 1009.7
20260509004202 17 165 0.0 1.6 0.00 0.00 0.00 50 1009.6
20260509003702 17 165 0.0 0.0 0.00 0.00 0.00 49 1009.6
20260509003445 18 165 0.0 1.6 0.00 0.00 0.00 48 1009.5
20260509002941 18 165 0.0 1.6 0.00 0.00 0.00 48 1009.5
20260509002203 18 166 0.0 1.6 0.00 0.00 0.00 48 1009.5
20260509001704 18 166 0.0 1.6 0.00 0.00 0.00 46 1009.5
20260509001201 18 165 0.0 0.0 0.00 0.00 0.00 47 1009.5
20260509000703 18 165 0.0 1.6 0.00 0.00 0.00 46 1009.4
20260509000145 18 165 0.0 3.2 0.00 0.00 0.00 45 1009.3
20260508235644 18 165 1.6 3.2 0.00 0.00 0.00 44 1009.2
20260508235425 18 245 0.0 1.6 0.00 0.00 0.00 45 1009.1
20260508234645 18 245 0.0 1.6 0.00 0.00 0.00 45 1009.1
20260508234419 19 245 0.0 3.2 0.00 0.00 0.00 45 1009.2